Location: Newark
(47.5833°N, 8.1500°E)
Time: 12:30:03
(UTC+00:00)

deb Explorer IX - Visible Passes

Search period start: 30 October 2020 00:00
Search period end: 09 November 2020 00:00
Orbit: 537 x 1106 km, 38.8° (Epoch: 30 October)

Date Brightness Start Highest point End Pass type
(mag) Time Alt. Az. Time Alt. Az. Time Alt. Az.
30 Oct ? 02:47:43 10° SSE 02:48:27 11° SE 02:49:37 10° SE visible
30 Oct ? 04:29:11 10° SW 04:34:08 28° SSE 04:39:41 10° ESE visible
31 Oct ? 04:07:24 16° SSW 04:10:53 27° SSE 04:16:15 10° ESE visible
01 Nov ? 03:45:42 22° S 03:47:37 27° SSE 03:52:49 10° ESE visible
01 Nov ? 05:28:27 10° WSW 05:33:56 38° S 05:40:10 10° ESE visible
02 Nov ? 03:23:56 26° SSE 03:24:23 26° SSE 03:29:22 10° ESE visible
02 Nov ? 05:05:21 10° WSW 05:10:39 37° S 05:16:43 10° ESE visible
03 Nov ? 03:02:08 24° SE 03:02:08 24° SE 03:05:57 10° ESE visible
03 Nov ? 04:43:26 16° SW 04:47:23 36° S 04:53:16 10° ESE visible
04 Nov ? 02:40:18 18° SE 02:40:18 18° SE 02:42:32 10° ESE visible
04 Nov ? 04:21:35 24° SW 04:24:09 35° S 04:29:51 10° ESE visible
05 Nov ? 02:18:27 13° ESE 02:18:27 13° ESE 02:19:07 10° ESE visible
05 Nov ? 03:59:44 31° SSW 04:00:55 34° S 04:06:25 10° ESE visible
05 Nov ? 05:42:26 10° WSW 05:47:18 28° SSW 05:52:46 10° SE visible
06 Nov ? 03:37:52 33° S 03:37:52 33° S 03:43:00 10° ESE visible
06 Nov ? 05:19:23 10° WSW 05:24:03 27° SSW 05:29:19 10° SE visible
07 Nov ? 03:16:01 28° SSE 03:16:01 28° SSE 03:19:35 10° ESE visible
07 Nov ? 04:57:19 14° WSW 05:00:48 26° SSW 05:05:51 10° SE visible
08 Nov ? 02:54:10 19° SE 02:54:10 19° SE 02:56:11 10° ESE visible
08 Nov ? 04:35:28 20° SW 04:37:34 25° SSW 04:42:24 10° SE visible
